Location: Newark
(21.1200°N, 73.4000°E)
Time: 13:53:04
(UTC+00:00)

Courier 1B Rocket - Pass Details

Date: 27 January 2020
Orbit: 920 x 1202 km, 28.2° (Epoch: 25 February)

Event Time Altitude Azimuth Distance (km) Brightness Sun altitude
Rises 05:14:37 0° 254° (WSW) 4,060 8.0 40.0°
Reaches altitude 10° 05:17:31 10° 255° (WSW) 3,074 7.5 40.4°
Maximum altitude 05:25:09 78° 342° (NNW) 1,144 5.9 41.5°
Drops below altitude 10° 05:32:18 10° 68° (ENE) 2,885 7.7 42.5°
Sets 05:34:57 0° 70° (ENE) 3,797 8.2 42.8°
